| time (UTC) | temp F | wind direction | speed MPH | gust MPH | rain 1hr in | rain 24hr in | rain mn in | humidity % | barometer mb |
| 20260509083639 | 76 | 190 | 2.0 | 7.0 | 0.00 | 0.00 | 0.00 | 39 | 1012.4 |
| 20260509082739 | 76 | 244 | 2.0 | 7.0 | 0.00 | 0.00 | 0.00 | 38 | 1012.5 |
| 20260509080939 | 75 | 245 | 2.0 | 9.0 | 0.00 | 0.00 | 0.00 | 37 | 1012.4 |
| 20260509080039 | 75 | 241 | 2.0 | 7.0 | 0.00 | 0.00 | 0.00 | 42 | 1012.3 |
| 20260509075139 | 74 | 237 | 4.0 | 7.0 | 0.00 | 0.00 | 0.00 | 45 | 1012.3 |
| 20260509074239 | 75 | 201 | 2.0 | 6.0 | 0.00 | 0.00 | 0.00 | 44 | 1012.4 |
| 20260509073339 | 74 | 218 | 2.0 | 4.0 | 0.00 | 0.00 | 0.00 | 48 | 1012.4 |
| 20260509072440 | 74 | 229 | 2.0 | 2.0 | 0.00 | 0.00 | 0.00 | 49 | 1012.5 |
| 20260509071539 | 73 | 240 | 2.0 | 4.0 | 0.00 | 0.00 | 0.00 | 53 | 1012.5 |
| 20260509070639 | 71 | 294 | 2.0 | 4.0 | 0.00 | 0.00 | 0.00 | 57 | 1012.4 |
| 20260509065739 | 73 | 324 | 0.0 | 2.0 | 0.00 | 0.00 | 0.00 | 56 | 1012.5 |
| 20260509064839 | 72 | 299 | 0.0 | 4.0 | 0.00 | 0.00 | 0.00 | 58 | 1012.6 |
| 20260509063939 | 69 | 268 | 2.0 | 4.0 | 0.00 | 0.00 | 0.00 | 61 | 1012.4 |
| 20260509063039 | 72 | 240 | 0.0 | 2.0 | 0.00 | 0.00 | 0.00 | 59 | 1012.3 |
| 20260509062139 | 70 | 263 | 0.0 | 4.0 | 0.00 | 0.00 | 0.00 | 61 | 1012.5 |
| 20260509061239 | 69 | 270 | 1.0 | 2.0 | 0.00 | 0.00 | 0.00 | 62 | 1012.4 |
| 20260509060339 | 68 | 270 | 0.0 | 2.0 | 0.00 | 0.00 | 0.00 | 66 | 1012.5 |
| 20260509055439 | 67 | 270 | 0.0 | 2.0 | 0.00 | 0.00 | 0.00 | 68 | 1012.4 |
| 20260509054539 | 66 | 287 | 1.0 | 4.0 | 0.00 | 0.00 | 0.00 | 69 | 1012.3 |
| 20260509053639 | 66 | 83 | 0.0 | 2.0 | 0.00 | 0.00 | 0.00 | 70 | 1012.4 |
| 20260509052739 | 66 | 357 | 0.0 | 2.0 | 0.00 | 0.00 | 0.00 | 70 | 1012.3 |
| 20260509051839 | 66 | 292 | 1.0 | 2.0 | 0.00 | 0.00 | 0.00 | 72 | 1012.5 |
| 20260509050939 | 65 | 292 | 0.0 | 2.0 | 0.00 | 0.00 | 0.00 | 73 | 1012.6 |
| 20260509050039 | 65 | 292 | 2.0 | 2.0 | 0.00 | 0.00 | 0.00 | 73 | 1012.6 |
| 20260509045139 | 65 | 292 | 0.0 | 2.0 | 0.00 | 0.00 | 0.00 | 73 | 1012.7 |
| 20260509044239 | 65 | 292 | 0.0 | 2.0 | 0.00 | 0.00 | 0.00 | 73 | 1012.7 |
| 20260509043339 | 65 | 300 | 1.0 | 2.0 | 0.00 | 0.00 | 0.00 | 74 | 1012.7 |
| 20260509042439 | 65 | 5 | 1.0 | 2.0 | 0.00 | 0.00 | 0.00 | 73 | 1012.6 |
| 20260509041539 | 65 | 5 | 0.0 | 2.0 | 0.00 | 0.00 | 0.00 | 72 | 1012.5 |
| 20260509040639 | 65 | 58 | 2.0 | 4.0 | 0.00 | 0.00 | 0.00 | 70 | 1012.6 |
| 20260509035739 | 64 | 90 | 1.0 | 2.0 | 0.00 | 0.00 | 0.00 | 67 | 1012.6 |
| 20260509034839 | 64 | 98 | 0.0 | 2.0 | 0.00 | 0.00 | 0.00 | 67 | 1012.4 |
| 20260509033939 | 64 | 104 | 0.0 | 2.0 | 0.00 | 0.00 | 0.00 | 67 | 1012.3 |
| 20260509033039 | 64 | 109 | 2.0 | 4.0 | 0.00 | 0.00 | 0.00 | 67 | 1012.2 |
| 20260509032139 | 64 | 326 | 2.0 | 2.0 | 0.00 | 0.00 | 0.00 | 68 | 1012.2 |
| 20260509031239 | 64 | 314 | 1.0 | 2.0 | 0.00 | 0.00 | 0.00 | 68 | 1012.2 |
| 20260509030339 | 64 | 314 | 0.0 | 2.0 | 0.00 | 0.00 | 0.00 | 68 | 1012.2 |
| 20260509025439 | 64 | 314 | 0.0 | 2.0 | 0.00 | 0.00 | 0.00 | 68 | 1012.1 |
| 20260509023639 | 64 | 314 | 0.0 | 2.0 | 0.00 | 0.00 | 0.00 | 67 | 1012.0 |
| 20260509022739 | 64 | 314 | 0.0 | 2.0 | 0.00 | 0.00 | 0.00 | 67 | 1012.0 |
| 20260509021839 | 64 | 314 | 0.0 | 2.0 | 0.00 | 0.00 | 0.00 | 68 | 1011.9 |
| 20260509020939 | 64 | 295 | 0.0 | 4.0 | 0.00 | 0.00 | 0.00 | 67 | 1012.1 |
| 20260509020039 | 64 | 284 | 4.0 | 4.0 | 0.00 | 0.00 | 0.00 | 68 | 1012.2 |
| 20260509015139 | 64 | 270 | 0.0 | 4.0 | 0.00 | 0.00 | 0.00 | 69 | 1012.0 |
| 20260509013339 | 64 | 270 | 0.0 | 2.0 | 0.00 | 0.00 | 0.00 | 69 | 1012.4 |
| 20260509011539 | 64 | 272 | 1.0 | 4.0 | 0.00 | 0.00 | 0.00 | 69 | 1012.7 |
| 20260509010639 | 64 | 270 | 1.0 | 2.0 | 0.00 | 0.00 | 0.00 | 70 | 1012.9 |
| 20260509004839 | 64 | 270 | 0.0 | 2.0 | 0.00 | 0.00 | 0.00 | 70 | 1013.1 |
| 20260509003939 | 65 | 0 | 0.0 | 0.0 | 0.00 | 0.00 | 0.00 | 70 | 1013.2 |
| 20260509003039 | 65 | 0 | 0.0 | 0.0 | 0.00 | 0.00 | 0.00 | 69 | 1013.1 |
| 20260509002139 | 65 | 270 | 0.0 | 2.0 | 0.00 | 0.00 | 0.00 | 69 | 1013.3 |
| 20260509001239 | 65 | 270 | 1.0 | 2.0 | 0.00 | 0.00 | 0.00 | 69 | 1013.4 |
| 20260509000340 | 65 | 0 | 0.0 | 0.0 | 0.00 | 0.00 | 0.00 | 69 | 1013.6 |
| 20260508235439 | 65 | 270 | 0.0 | 2.0 | 0.00 | 0.00 | 0.00 | 69 | 1013.7 |
| 20260508234539 | 65 | 270 | 0.0 | 2.0 | 0.00 | 0.00 | 0.00 | 69 | 1013.6 |
| 20260508233639 | 65 | 270 | 0.0 | 2.0 | 0.00 | 0.00 | 0.00 | 69 | 1013.7 |
| 20260508232739 | 65 | 270 | 0.0 | 2.0 | 0.00 | 0.00 | 0.00 | 69 | 1013.8 |
| 20260508231839 | 65 | 270 | 0.0 | 2.0 | 0.00 | 0.00 | 0.00 | 69 | 1014.1 |
| 20260508230939 | 65 | 270 | 0.0 | 2.0 | 0.00 | 0.00 | 0.00 | 69 | 1014.0 |
| 20260508230039 | 65 | 270 | 0.0 | 2.0 | 0.00 | 0.00 | 0.00 | 68 | 1013.9 |
| 20260508224239 | 66 | 228 | 1.0 | 4.0 | 0.00 | 0.00 | 0.00 | 68 | 1014.1 |
| 20260508223339 | 66 | 202 | 1.0 | 2.0 | 0.00 | 0.00 | 0.00 | 67 | 1014.1 |
| 20260508222439 | 67 | 235 | 1.0 | 4.0 | 0.00 | 0.00 | 0.00 | 66 | 1014.0 |
| 20260508221539 | 67 | 244 | 1.0 | 4.0 | 0.00 | 0.00 | 0.00 | 65 | 1014.1 |
| 20260508220639 | 67 | 240 | 2.0 | 4.0 | 0.00 | 0.00 | 0.00 | 65 | 1014.3 |
| 20260508215739 | 67 | 249 | 2.0 | 4.0 | 0.00 | 0.00 | 0.00 | 64 | 1014.3 |
| 20260508214839 | 67 | 249 | 2.0 | 4.0 | 0.00 | 0.00 | 0.00 | 63 | 1014.5 |
| 20260508213939 | 67 | 252 | 2.0 | 4.0 | 0.00 | 0.00 | 0.00 | 62 | 1014.2 |
| 20260508211239 | 67 | 239 | 1.0 | 4.0 | 0.00 | 0.00 | 0.00 | 60 | 1014.3 |
| 20260508210339 | 68 | 115 | 1.0 | 4.0 | 0.00 | 0.00 | 0.00 | 59 | 1014.2 |
| 20260508204539 | 68 | 255 | 1.0 | 4.0 | 0.00 | 0.00 | 0.00 | 58 | 1014.6 |
| 20260508202739 | 68 | 273 | 1.0 | 7.0 | 0.00 | 0.00 | 0.00 | 56 | 1014.8 |
| 20260508201839 | 68 | 225 | 2.0 | 7.0 | 0.00 | 0.00 | 0.00 | 55 | 1014.3 |
| 20260508200939 | 68 | 255 | 2.0 | 7.0 | 0.00 | 0.00 | 0.00 | 53 | 1014.4 |
| 20260508200039 | 68 | 223 | 2.0 | 4.0 | 0.00 | 0.00 | 0.00 | 52 | 1014.1 |
| 20260508194239 | 69 | 275 | 1.0 | 4.0 | 0.00 | 0.00 | 0.00 | 50 | 1014.1 |
| 20260508192439 | 69 | 225 | 2.0 | 2.0 | 0.00 | 0.00 | 0.00 | 51 | 1014.0 |
| 20260508185739 | 69 | 230 | 0.0 | 2.0 | 0.00 | 0.00 | 0.00 | 50 | 1013.9 |
| 20260508184839 | 69 | 185 | 1.0 | 4.0 | 0.00 | 0.00 | 0.00 | 50 | 1013.7 |
| 20260508183939 | 69 | 216 | 2.0 | 4.0 | 0.00 | 0.00 | 0.00 | 50 | 1013.6 |
| 20260508183039 | 68 | 292 | 0.0 | 4.0 | 0.00 | 0.00 | 0.00 | 55 | 1013.4 |
| 20260508181239 | 69 | 296 | 4.0 | 8.0 | 0.00 | 0.00 | 0.00 | 57 | 1013.5 |
| 20260508174539 | 69 | 264 | 4.0 | 7.0 | 0.00 | 0.00 | 0.00 | 56 | 1012.9 |
| 20260508172739 | 68 | 243 | 4.0 | 8.0 | 0.00 | 0.00 | 0.00 | 56 | 1012.3 |
| 20260508171839 | 69 | 192 | 2.0 | 7.0 | 0.00 | 0.00 | 0.00 | 56 | 1012.3 |
| 20260508170039 | 69 | 175 | 4.0 | 8.0 | 0.00 | 0.00 | 0.00 | 54 | 1012.6 |
| 20260508165139 | 69 | 116 | 2.0 | 7.0 | 0.00 | 0.00 | 0.00 | 53 | 1012.5 |
| 20260508164239 | 70 | 137 | 2.0 | 7.0 | 0.00 | 0.00 | 0.00 | 51 | 1012.3 |
| 20260508163339 | 70 | 128 | 2.0 | 7.0 | 0.00 | 0.00 | 0.00 | 51 | 1012.3 |
| 20260508161539 | 70 | 107 | 6.0 | 11.0 | 0.00 | 0.00 | 0.00 | 50 | 1012.3 |
| 20260508160639 | 71 | 137 | 3.0 | 7.0 | 0.00 | 0.00 | 0.00 | 48 | 1012.3 |
| 20260508155739 | 71 | 124 | 2.0 | 8.0 | 0.00 | 0.00 | 0.00 | 49 | 1012.4 |
| 20260508154839 | 71 | 235 | 3.0 | 11.0 | 0.00 | 0.00 | 0.00 | 48 | 1012.4 |
| 20260508153939 | 71 | 224 | 3.0 | 11.0 | 0.00 | 0.00 | 0.00 | 48 | 1012.4 |
| 20260508153039 | 71 | 129 | 3.0 | 9.0 | 0.00 | 0.00 | 0.00 | 47 | 1012.3 |
| 20260508151239 | 72 | 125 | 4.0 | 8.0 | 0.00 | 0.00 | 0.00 | 47 | 1012.2 |
| 20260508150339 | 72 | 103 | 2.0 | 9.0 | 0.00 | 0.00 | 0.00 | 46 | 1012.3 |
| 20260508145439 | 74 | 129 | 3.0 | 9.0 | 0.00 | 0.00 | 0.00 | 44 | 1012.3 |
| 20260508144539 | 73 | 103 | 3.0 | 11.0 | 0.00 | 0.00 | 0.00 | 48 | 1012.2 |
| 20260508142739 | 74 | 116 | 2.0 | 11.0 | 0.00 | 0.00 | 0.00 | 47 | 1012.3 |
| 20260508141839 | 73 | 161 | 2.0 | 8.0 | 0.00 | 0.00 | 0.00 | 48 | 1012.3 |
| 20260508140939 | 74 | 134 | 2.0 | 9.0 | 0.00 | 0.00 | 0.00 | 48 | 1012.5 |
| 20260508140039 | 75 | 144 | 2.0 | 9.0 | 0.00 | 0.00 | 0.00 | 47 | 1012.6 |
| 20260508132439 | 74 | 216 | 2.0 | 8.0 | 0.00 | 0.00 | 0.00 | 46 | 1013.1 |
| 20260508130639 | 74 | 115 | 3.0 | 11.0 | 0.00 | 0.00 | 0.00 | 45 | 1013.3 |
| 20260508125739 | 74 | 128 | 2.0 | 11.0 | 0.00 | 0.00 | 0.00 | 44 | 1013.4 |
| 20260508124839 | 75 | 128 | 2.0 | 9.0 | 0.00 | 0.00 | 0.00 | 43 | 1013.6 |
| 20260508123939 | 73 | 136 | 3.0 | 14.0 | 0.00 | 0.00 | 0.00 | 43 | 1013.6 |
| 20260508123039 | 73 | 100 | 5.0 | 14.0 | 0.00 | 0.00 | 0.00 | 42 | 1013.9 |
| 20260508122139 | 74 | 193 | 2.0 | 9.0 | 0.00 | 0.00 | 0.00 | 42 | 1014.1 |
| 20260508121239 | 73 | 205 | 2.0 | 13.0 | 0.00 | 0.00 | 0.00 | 43 | 1014.3 |
| 20260508114539 | 73 | 227 | 4.0 | 7.0 | 0.00 | 0.00 | 0.00 | 49 | 1014.3 |
| 20260508113639 | 73 | 247 | 2.0 | 6.0 | 0.00 | 0.00 | 0.00 | 43 | 1014.3 |
| 20260508112739 | 72 | 217 | 3.0 | 4.0 | 0.00 | 0.00 | 0.00 | 47 | 1013.9 |
| 20260508111839 | 72 | 204 | 0.0 | 4.0 | 0.00 | 0.00 | 0.00 | 47 | 1014.3 |
| 20260508110939 | 71 | 268 | 1.0 | 6.0 | 0.00 | 0.00 | 0.00 | 47 | 1014.5 |
| 20260508110039 | 71 | 276 | 3.0 | 6.0 | 0.00 | 0.00 | 0.00 | 48 | 1014.7 |
| 20260508103339 | 71 | 265 | 2.0 | 7.0 | 0.00 | 0.00 | 0.00 | 48 | 1015.3 |
| 20260508101539 | 71 | 247 | 2.0 | 4.0 | 0.00 | 0.00 | 0.00 | 49 | 1015.3 |
| 20260508100639 | 70 | 177 | 2.0 | 4.0 | 0.00 | 0.00 | 0.00 | 51 | 1015.2 |
| 20260508095739 | 70 | 222 | 1.0 | 4.0 | 0.00 | 0.00 | 0.00 | 53 | 1015.4 |
| 20260508093939 | 70 | 226 | 4.0 | 7.0 | 0.00 | 0.00 | 0.00 | 54 | 1016.1 |
| 20260508093039 | 71 | 174 | 2.0 | 4.0 | 0.00 | 0.00 | 0.00 | 53 | 1016.0 |
| 20260508092139 | 70 | 252 | 1.0 | 8.0 | 0.00 | 0.00 | 0.00 | 54 | 1016.0 |
| 20260508091239 | 69 | 228 | 2.0 | 6.0 | 0.00 | 0.00 | 0.00 | 56 | 1016.3 |
| 20260508090339 | 70 | 202 | 2.0 | 7.0 | 0.00 | 0.00 | 0.00 | 54 | 1016.2 |
| 20260508084539 | 69 | 193 | 3.0 | 8.0 | 0.00 | 0.00 | 0.00 | 56 | 1016.4 |